Regional Weather Roundup
Issued by NWS Green Bay, WI

Home | Current Version | Previous Version | Text Only | Print | Product List | Glossary On
Versions: 1 2 3 4 5 6 7 8 9 10 11 12 13 14 15 16 17 18 19 20 21 22 23 24 25 26 27 28 29 30 31 32 33 34 35 36 37 38 39 40 41 42 43 44 45 46 47 48 49 50
000
ASUS43 KGRB 240211
RWRGRB

NORTH-CENTRAL AND NORTHEAST WISCONSIN REGIONAL WEATHER ROUNDUP
NATIONAL WEATHER SERVICE GREEN BAY WI
900 PM CDT TUE MAY 23 2017

WIZ005-009-010>012-018-019-240300-
NORTH CENTRAL WISCONSIN

CITY           SKY/WX    TMP DP  RH WIND       PRES   REMARKS
IRONWOOD       CLOUDY    46  43  89 N3        29.86F
MANITOWISH WTR CLOUDY    48  46  91 N6        29.83S
ARBOR VITAE    CLOUDY    52  47  83 N7        29.81S
EAGLE RIVER    PTCLDY    49  43  78 N8        29.81S
LAND O LAKES   CLOUDY    50  44  79 NE12      29.84S
RHINELANDER    CLOUDY    52  44  74 N8        29.81R
PHILLIPS       CLOUDY    51  44  78 NE7       29.81R
ANTIGO         LGT RAIN  50  45  82 E3        29.79R
TOMAHAWK       CLOUDY    51  43  74 N6        29.80S
MERRILL        CLOUDY    54  46  74 NE3       29.78F
$$

WIZ013-073-240300-
NORTHEAST WISCONSIN

CITY           SKY/WX    TMP DP  RH WIND       PRES   REMARKS
IRON MOUNTAIN  CLOUDY    53  41  63 NE7       29.80R
MARINETTE      LGT RAIN  52  50  93 NE6       29.79S
OCONTO         CLOUDY    51  49  93 CALM      29.78R
$$

WIZ017-030-035>037-045-240300-
CENTRAL WISCONSIN

CITY           SKY/WX    TMP DP  RH WIND       PRES   REMARKS
MEDFORD        CLOUDY    52  44  73 N10       29.77S
WAUSAU         LGT RAIN  53  46  77 CALM      29.76S
MOSINEE        LGT RAIN  52  48  87 E5        29.79R
MARSHFIELD     CLOUDY    53  45  74 E8        29.76S
WISC RAPIDS    CLOUDY    50  46  86 E13       29.78R
STEVENS POINT  CLOUDY    49  45  84 E6        29.78S
WAUPACA        RAIN      51  49  92 N3        29.77F
SHAWANO        DRIZZLE   51  49  91 CALM      29.79S
CLINTONVILLE   LGT RAIN  48  46  93 NE5       29.78S
WAUTOMA        LGT RAIN  49  47  93 NE8       29.76S
$$

WIZ038-039-048-051-240300-
FOX VALLEY

CITY           SKY/WX    TMP DP  RH WIND       PRES   REMARKS
NWS GREEN BAY  LGT RAIN  51  50  96 NE10      29.76F
APPLETON       LGT RAIN  48  48 100 E12       29.75S
OSHKOSH        LGT RAIN  50  48  93 NE12      29.74S
FOND DU LAC    LGT RAIN  50  46  86 NE8       29.74S
$$

WIZ022-050-052-240300-
EAST CENTRAL WISCONSIN

CITY           SKY/WX    TMP DP  RH WIND       PRES   REMARKS
EPHRAIM        CLOUDY    49  48  97 N8        29.78R
WASHINGTON ISL CLOUDY    48  46  90 N12       29.77F
STURGEON BAY   RAIN      50  48  93 NE9       29.79S
MANITOWOC      LGT RAIN  49  46  90 N7        29.76F
SHEBOYGAN      LGT RAIN  47  47 100 NE12      29.74F
$$

LMZ563-521-522-541>543-240300-
LAKESHORE

STATION/POSITION TIME  TEMP    WIND        PRES    VSBY  WAVE
                       AIR SEA DIR/SP/G                  HT/PER
                 (UTC) (F)     (DEG/KT/KT) (MB)    (MI)  (FT/S)
SHEBOYGAN LKSHOR 0200   45      10/ 12/ 13 1007.4F
KEWAUNEE LKSHORE 0148   49     350/  5/  7 1007.9F
NORTHPORT PIER   0140   48     340/ 13/ 15 1008.1F
N MID LAKE BUOY  0150   43 39   40/  8/  8 1009.1S         0
CHAMBERS ISLAND  0130   50     360/ 12/ 14 1008.1S
MENOMINEE LKSHOR 0148           10/ 10/ 11 1007.7R
$$




USA.gov is the U.S. government's official web portal to all federal, state and local government web resources and services.